Location: Ferchesar
(52.6477°N, 12.4298°E)
Time: 15:44:43
(UTC+01:00)

deb Explorer IX - Pass Details

Date: 10 December 2021
Orbit: 544 x 1082 km, 38.8° (Epoch: 18 January)

Event Time Altitude Azimuth Distance (km) Brightness Sun altitude
Rises 10:24:29 0° 244° (WSW) 3,203 ? 11.4°
Reaches altitude 10° 10:28:01 10° 222° (SW) 2,156 ? 11.6°
Maximum altitude 10:30:48 15° 188° (S) 1,752 ? 11.8°
Drops below altitude 10° 10:33:24 10° 153° (SSE) 1,988 ? 11.9°
Sets 10:36:27 0° 130° (SE) 2,811 ? 12.1°
